Hourly Weather Goldyrevskiy

Today, 7 May, Friday

Time Temperature Precipitation Wind Pressure Humidity
00:00 +6°C° 0 mm 2 mps 743 mmHg 75%
01:00 +5°C° 0 mm 2 mps 743 mmHg 79%
02:00 +5°C° 0 mm 2 mps 743 mmHg 81%
03:00 +4°C° 0 mm 3 mps 743 mmHg 84%
04:00 +4°C° 0 mm 3 mps 743 mmHg 86%
05:00 +5°C° 0 mm 3 mps 744 mmHg 83%
06:00 +7°C° 0 mm 4 mps 744 mmHg 79%
07:00 +8°C° 0 mm 4 mps 744 mmHg 75%
08:00 +10°C° 0 mm 5 mps 744 mmHg 70%
09:00 +14°C° 0 mm 5 mps 744 mmHg 64%
10:00 +16°C° 0 mm 5 mps 744 mmHg 58%
11:00 +17°C° 0 mm 5 mps 744 mmHg 54%
12:00 +19°C° 0 mm 6 mps 744 mmHg 50%
13:00 +20°C° 0 mm 6 mps 744 mmHg 46%
14:00 +19°C° 0 mm 5 mps 744 mmHg 50%
15:00 +18°C° 0 mm 4 mps 743 mmHg 55%
16:00 +17°C° 0 mm 3 mps 743 mmHg 59%
17:00 +16°C° 0 mm 3 mps 743 mmHg 62%
18:00 +16°C° 0 mm 3 mps 743 mmHg 64%
19:00 +14°C° 0 mm 3 mps 743 mmHg 67%
20:00 +13°C° 0 mm 3 mps 743 mmHg 67%
21:00 +13°C° 0 mm 3 mps 743 mmHg 68%
22:00 +12°C° 0 mm 3 mps 743 mmHg 68%
23:00 +12°C° 0 mm 3 mps 743 mmHg 69%

Tomorrow, 8 May, Saturday

Time Temperature Precipitation Wind Pressure Humidity
00:00 +13°C° 0 mm 2 mps 743 mmHg 70%
01:00 +13°C° 0 mm 2 mps 743 mmHg 71%
02:00 +12°C° 0 mm 2 mps 743 mmHg 71%
03:00 +12°C° 0 mm 2 mps 743 mmHg 72%
04:00 +12°C° 0 mm 2 mps 743 mmHg 73%
05:00 +12°C° 0 mm 2 mps 744 mmHg 72%
06:00 +13°C° 0 mm 2 mps 744 mmHg 70%
07:00 +14°C° 0 mm 2 mps 744 mmHg 68%
08:00 +15°C° 0 mm 2 mps 744 mmHg 63%
09:00 +16°C° 0 mm 3 mps 744 mmHg 58%
10:00 +17°C° 0 mm 3 mps 744 mmHg 52%
11:00 +18°C° 0 mm 3 mps 744 mmHg 50%
12:00 +18°C° 0 mm 2 mps 744 mmHg 47%
13:00 +19°C° 0 mm 2 mps 744 mmHg 45%
14:00 +19°C° 0 mm 2 mps 744 mmHg 48%
15:00 +18°C° 0 mm 2 mps 744 mmHg 51%
16:00 +18°C° 0 mm 2 mps 744 mmHg 54%
17:00 +18°C° 0 mm 1 mps 744 mmHg 56%
18:00 +18°C° 0 mm 1 mps 744 mmHg 59%
19:00 +16°C° 0 mm 1 mps 744 mmHg 61%
20:00 +15°C° 0 mm 1 mps 744 mmHg 63%
21:00 +14°C° 0 mm 1 mps 744 mmHg 66%
22:00 +13°C° 0 mm 1 mps 744 mmHg 68%
23:00 +12°C° 0 mm 1 mps 744 mmHg 69%

Day after tomorrow, 9 May, Sunday

Time Temperature Precipitation Wind Pressure Humidity
00:00 +12°C° 0 mm 1 mps 744 mmHg 70%
01:00 +11°C° 0 mm 1 mps 744 mmHg 71%
02:00 +11°C° 0 mm 1 mps 744 mmHg 73%
03:00 +11°C° 0 mm 1 mps 744 mmHg 74%
04:00 +10°C° 0 mm 1 mps 744 mmHg 75%
05:00 +12°C° 0 mm 1 mps 744 mmHg 71%
06:00 +13°C° 0 mm 1 mps 744 mmHg 68%
07:00 +14°C° 0 mm 1 mps 745 mmHg 64%
08:00 +16°C° 0 mm 1 mps 744 mmHg 59%
09:00 +17°C° 0 mm 2 mps 744 mmHg 54%
10:00 +19°C° 0 mm 2 mps 744 mmHg 50%
11:00 +20°C° 0 mm 2 mps 744 mmHg 45%
12:00 +20°C° 0 mm 2 mps 744 mmHg 41%
13:00 +21°C° 0 mm 2 mps 744 mmHg 37%
14:00 +21°C° 0 mm 2 mps 744 mmHg 38%
15:00 +21°C° 0 mm 2 mps 744 mmHg 39%
16:00 +21°C° 0 mm 2 mps 744 mmHg 41%
17:00 +20°C° 0 mm 2 mps 744 mmHg 46%
18:00 +19°C° 0 mm 2 mps 744 mmHg 51%
19:00 +18°C° 0 mm 2 mps 744 mmHg 56%
20:00 +17°C° 0 mm 2 mps 744 mmHg 56%
21:00 +16°C° 0 mm 1 mps 744 mmHg 57%
22:00 +15°C° 0 mm 1 mps 745 mmHg 57%
23:00 +14°C° 0 mm 1 mps 745 mmHg 59%

10 May, Monday

Time Temperature Precipitation Wind Pressure Humidity
00:00 +13°C° 0 mm 1 mps 745 mmHg 62%
01:00 +13°C° 0 mm 2 mps 745 mmHg 64%
02:00 +12°C° 0 mm 2 mps 745 mmHg 65%
03:00 +12°C° 0 mm 2 mps 745 mmHg 66%
04:00 +10°C° 0 mm 2 mps 745 mmHg 67%
05:00 +13°C° 0 mm 2 mps 745 mmHg 65%
06:00 +14°C° 0 mm 2 mps 746 mmHg 63%
07:00 +15°C° 0 mm 2 mps 746 mmHg 62%
08:00 +16°C° 0 mm 3 mps 746 mmHg 56%
09:00 +18°C° 0 mm 3 mps 746 mmHg 50%
10:00 +20°C° 0 mm 4 mps 746 mmHg 44%
11:00 +20°C° 0 mm 4 mps 746 mmHg 43%
12:00 +21°C° 0 mm 5 mps 746 mmHg 42%
13:00 +21°C° 0 mm 5 mps 746 mmHg 42%
14:00 +17°C° 0.4 mm 6 mps 747 mmHg 56%
15:00 +14°C° 0.4 mm 7 mps 747 mmHg 71%
16:00 +10°C° 0.4 mm 7 mps 748 mmHg 85%
17:00 +9°C° 0.6 mm 7 mps 748 mmHg 86%
18:00 +8°C° 0.6 mm 6 mps 749 mmHg 86%
19:00 +7°C° 0.6 mm 6 mps 749 mmHg 87%
20:00 +6°C° 0 mm 5 mps 750 mmHg 88%
21:00 +6°C° 0 mm 4 mps 750 mmHg 89%
22:00 +5°C° 0 mm 3 mps 750 mmHg 90%
23:00 +5°C° 0 mm 3 mps 751 mmHg 91%

11 May, Tuesday

Time Temperature Precipitation Wind Pressure Humidity
00:00 +5°C° 0 mm 2 mps 751 mmHg 92%
01:00 +5°C° 0 mm 2 mps 751 mmHg 92%
02:00 +5°C° 0 mm 2 mps 752 mmHg 92%
03:00 +4°C° 0 mm 2 mps 752 mmHg 92%
04:00 +4°C° 0 mm 2 mps 752 mmHg 91%
05:00 +6°C° 0 mm 2 mps 752 mmHg 85%
06:00 +7°C° 0 mm 2 mps 753 mmHg 79%
07:00 +8°C° 0 mm 2 mps 753 mmHg 72%
08:00 +10°C° 0 mm 2 mps 753 mmHg 64%
09:00 +12°C° 0 mm 2 mps 753 mmHg 55%
10:00 +13°C° 0 mm 3 mps 753 mmHg 47%
11:00 +14°C° 0 mm 3 mps 753 mmHg 44%
12:00 +14°C° 0 mm 3 mps 753 mmHg 42%
13:00 +16°C° 0 mm 3 mps 753 mmHg 39%
14:00 +15°C° 0 mm 4 mps 753 mmHg 40%
15:00 +17°C° 0 mm 4 mps 752 mmHg 42%
16:00 +17°C° 0 mm 4 mps 752 mmHg 43%
17:00 +16°C° 0 mm 3 mps 752 mmHg 49%
18:00 +13°C° 0 mm 3 mps 752 mmHg 55%
19:00 +13°C° 0 mm 2 mps 752 mmHg 62%
20:00 +12°C° 0 mm 2 mps 752 mmHg 63%
21:00 +12°C° 0 mm 2 mps 752 mmHg 64%
22:00 +10°C° 0 mm 2 mps 752 mmHg 65%
23:00 +10°C° 0 mm 3 mps 752 mmHg 68%

12 May, Wednesday

Time Temperature Precipitation Wind Pressure Humidity
00:00 +10°C° 0 mm 3 mps 751 mmHg 72%
01:00 +9°C° 0 mm 3 mps 751 mmHg 75%
02:00 +9°C° 0 mm 3 mps 751 mmHg 79%
03:00 +8°C° 0 mm 4 mps 751 mmHg 83%
04:00 +8°C° 0 mm 4 mps 751 mmHg 86%
05:00 +10°C° 0 mm 4 mps 751 mmHg 83%
06:00 +11°C° 0 mm 4 mps 751 mmHg 80%
07:00 +13°C° 0 mm 5 mps 750 mmHg 77%
08:00 +14°C° 0 mm 5 mps 750 mmHg 71%
09:00 +16°C° 0 mm 6 mps 750 mmHg 65%
10:00 +19°C° 0 mm 6 mps 750 mmHg 59%
11:00 +20°C° 0 mm 6 mps 749 mmHg 55%
12:00 +21°C° 0 mm 6 mps 749 mmHg 51%
13:00 +21°C° 0 mm 6 mps 749 mmHg 47%
14:00 +22°C° 0 mm 6 mps 749 mmHg 46%
15:00 +22°C° 0 mm 6 mps 748 mmHg 45%
16:00 +23°C° 0 mm 6 mps 748 mmHg 44%
17:00 +21°C° 0 mm 5 mps 748 mmHg 50%
18:00 +20°C° 0 mm 4 mps 748 mmHg 56%
19:00 +19°C° 0 mm 3 mps 748 mmHg 61%
20:00 +18°C° 0 mm 2 mps 748 mmHg 63%
21:00 +17°C° 0 mm 2 mps 748 mmHg 66%
22:00 +16°C° 0 mm 1 mps 748 mmHg 68%
23:00 +16°C° 0 mm 1 mps 748 mmHg 68%
Show more